This demonstration page uses our WeatherBlox Daily Observations layout. Learn more.

Left ArrowRight Arrow

Hourly Observations for October 22, 2015

Temp ( °F °C ) Dew Point ( °F °C ) Humidity (%) Winds ( mph kmh ) Pressure ( in mb ) Visibility ( mi km ) Precip ( " mm )
12:53 am 00:53 Clear 51 10.6 48 8.9 89 89 Calm 30.30 1026 10 16 0.00 0.00
1:53 am 01:53 Clear 50 10 47 8.3 89 89 Calm 30.29 1026 10 16 0.00 0.00
2:53 am 02:53 Clear 49 9.4 46 7.8 90 90 Calm 30.29 1026 9 14 0.00 0.00
3:53 am 03:53 Clear 49 9.4 46 7.8 90 90 Calm 30.28 1025 10 16 0.00 0.00
4:53 am 04:53 Clear 48 8.9 45 7.2 89 89 Calm 30.28 1025 10 16 0.00 0.00
5:53 am 05:53 Clear 49 9.4 46 7.8 90 90 Calm 30.28 1025 10 16 0.00 0.00
6:53 am 06:53 Clear 48 8.9 45 7.2 89 89 Calm 30.29 1026 9 14 0.00 0.00
7:53 am 07:53 Sunny 47 8.3 44 6.7 90 90 NNE 3 6 30.32 1027 10 16 0.00 0.00
8:53 am 08:53 Sunny 53 11.7 49 9.4 86 86 Calm 30.33 1027 10 16 0.00 0.00
9:53 am 09:53 Sunny 59 15 52 11.1 78 78 Calm 30.34 1028 10 16 0.00 0.00
10:53 am 10:53 Sunny 67 19.4 54 12.2 63 63 N 5 7 30.34 1027 10 16 0.00 0.00
11:53 am 11:53 Sunny 72 22.2 58 14.4 61 61 VRB 3 6 30.33 1027 10 16 0.00 0.00
12:53 pm 12:53 Partly Cloudy 74 23.3 58 14.4 57 57 ENE 3 6 30.32 1027 10 16 0.00 0.00
1:53 pm 13:53 Sunny 76 24.4 58 14.4 54 54 Calm 30.29 1026 10 16 0.00 0.00
2:53 pm 14:53 Sunny 76 24.4 55 12.8 48 48 SSW 3 6 30.25 1025 10 16 0.00 0.00
3:53 pm 15:53 Mostly Cloudy 77 25 56 13.3 48 48 E 6 9 30.23 1024 10 16 0.00 0.00
4:53 pm 16:53 Mostly Sunny 77 25 56 13.3 48 48 NE 3 6 30.22 1023 10 16 0.00 0.00
5:53 pm 17:53 Cloudy 76 24.4 55 12.8 48 48 Calm 30.22 1023 10 16 0.00 0.00
6:53 pm 18:53 Mostly Cloudy 71 21.7 60 15.6 68 68 Calm 30.22 1023 10 16 0.00 0.00
7:53 pm 19:53 Partly Cloudy 65 18.3 60 15.6 84 84 Calm 30.23 1024 10 16 0.00 0.00
8:53 pm 20:53 Clear 63 17.2 59 15 87 87 Calm 30.24 1024 10 16 0.00 0.00
9:53 pm 21:53 Clear 60 15.6 58 14.4 93 93 Calm 30.24 1024 10 16 0.00 0.00
10:53 pm 22:53 Clear 59 15 57 13.9 93 93 Calm 30.23 1024 10 16 0.00 0.00
11:53 pm 23:53 Clear 58 14.4 55 12.8 90 90 Calm 30.23 1024 10 16 0.00 0.00

Powered by AerisWeather